Location: Krakow
(50.0830°N, 19.9170°E)
Time: 07:56:12
(UTC+02:00)

Tiros 1 despin weight - Pass Details

Date: 23 March 2026
Orbit: 555 x 592 km, 48.2° (Epoch: 18 April)

Event Time Altitude Azimuth Distance (km) Brightness Sun altitude
Rises 04:22:28 0° 264° (W) 2,822 - -12.6°
Reaches altitude 10° 04:24:46 10° 262° (W) 1,919 - -12.2°
Exits shadow 04:25:57 18° 260° (W) 1,471 ? -12.1°
Maximum altitude 04:29:09 70° 179° (S) 628 ? -11.6°
Drops below altitude 10° 04:33:30 10° 96° (E) 1,903 ? -10.9°
Sets 04:35:46 0° 94° (E) 2,797 ? -10.5°
